Stations météo

Publicité
Chassiron, France (7314): Température de l'air & dewpoint: 25.10.2020 23:00:00 - 31.10.2020 23:00:00 (CET)Chassiron, France (7314): Vitesse du vent & gusts: 25.10.2020 23:00:00 - 31.10.2020 23:00:00 (CET)Chassiron, France (7314): Direction du vent: 25.10.2020 23:00:00 - 31.10.2020 23:00:00 (CET)Chassiron, France (7314): reduced air pressure: 25.10.2020 23:00:00 - 31.10.2020 23:00:00 (CET)Chassiron, France (7314): visibility: 25.10.2020 23:00:00 - 31.10.2020 23:00:00 (CET)Chassiron, France (7314): Quantités de précipitations: 25.10.2020 23:00:00 - 31.10.2020 23:00:00 (CET)
Date & Time tt [°C] td [°C] ff [km/h] ff [knt] fx [km/h] fx [knt] dd ppp [hPa] vv [km] rr [mm]
31.10.2020 23:00:00 17,0 14,8 27 15 36 20 S 1019,7 - 0,0
31.10.2020 22:00:00 16,9 14,7 21 12 32 18 S 1019,7 12 0,0
31.10.2020 21:00:00 16,9 14,5 21 11 29 16 S 1019,6 - 0,0
31.10.2020 20:00:00 17,1 14,6 23 12 30 16 SSW 1019,8 - 0,0
31.10.2020 19:00:00 17,3 14,8 24 13 39 21 SW 1019,9 12 0,0
31.10.2020 18:00:00 17,9 14,0 30 16 42 23 SW 1019,8 - 0,0
31.10.2020 17:00:00 17,2 14,5 29 15 39 21 S 1019,6 - 0,0
31.10.2020 16:00:00 16,7 14,9 24 13 37 20 S 1019,5 6 0,0
31.10.2020 15:00:00 16,4 14,9 21 12 40 22 S 1019,8 - 0,0
31.10.2020 14:00:00 16,0 14,5 33 18 42 23 S 1019,7 - 0,0
31.10.2020 13:00:00 15,6 14,3 29 16 47 26 S 1020,4 - 0,0
31.10.2020 12:00:00 16,6 15,0 29 16 47 25 S 1020,5 - 0,0
31.10.2020 11:00:00 15,6 14,3 30 16 45 24 S 1020,6 - 0,0
31.10.2020 10:00:00 15,0 14,0 31 17 44 24 S 1020,7 - 0,0
31.10.2020 09:00:00 14,7 13,6 33 18 43 23 S 1021,0 - 0,0
31.10.2020 08:00:00 14,9 13,4 25 14 36 19 S 1021,0 - 0,0
31.10.2020 07:00:00 15,3 13,7 20 11 31 17 S 1020,6 - 0,0
31.10.2020 06:00:00 15,2 13,0 16 8 29 16 S 1020,8 - 0,0
31.10.2020 05:00:00 15,2 12,9 19 10 30 16 S 1021,3 - 0,0
31.10.2020 04:00:00 14,7 13,6 14 7 23 12 SSW 1021,6 15 0,0
31.10.2020 03:00:00 12,3 10,9 11 6 22 12 SE 1022,1 - 0,0
31.10.2020 02:00:00 11,9 10,1 11 6 21 11 SE 1022,5 - 0,0
31.10.2020 01:00:00 12,2 10,3 14 8 22 12 SSE 1022,9 - 0,0
31.10.2020 00:00:00 12,7 10,6 14 7 21 11 SE 1023,3 - 0,0
30.10.2020 23:00:00 13,5 11,2 16 9 22 12 SE 1023,8 - 0,0
30.10.2020 22:00:00 13,6 11,5 14 7 21 11 ESE 1023,8 - 0,0
30.10.2020 21:00:00 13,9 11,6 13 7 18 10 ESE 1024,0 - 0,0
30.10.2020 20:00:00 14,4 11,9 11 6 16 9 E 1024,2 - 0,0
30.10.2020 19:00:00 14,5 11,8 7 4 11 6 E 1024,6 12 0,0
30.10.2020 18:00:00 15,1 11,5 7 4 11 6 E 1024,6 - 0,0
30.10.2020 17:00:00 16,6 13,1 5 3 15 8 ENE 1024,7 - 0,0
30.10.2020 16:00:00 16,5 12,8 8 5 14 8 E 1024,9 - 0,0
30.10.2020 15:00:00 17,0 13,9 7 4 16 9 E 1025,2 - 0,0
30.10.2020 14:00:00 16,4 13,1 10 5 15 8 E 1025,5 - 0,0
30.10.2020 13:00:00 17,0 14,1 4 2 18 10 WSW 1025,9 - 0,0
30.10.2020 12:00:00 17,3 14,6 7 4 16 9 S 1026,4 - 0,0
30.10.2020 11:00:00 16,0 14,5 11 6 20 11 S 1026,3 - 0,0
30.10.2020 10:00:00 14,7 13,6 15 8 20 11 SSE 1026,3 6 0,0
30.10.2020 09:00:00 13,6 12,3 14 7 19 10 SSE 1026,2 - 0,0
30.10.2020 08:00:00 12,8 11,0 10 6 15 8 SE 1025,9 - 0,0
30.10.2020 07:00:00 13,5 10,5 7 4 16 9 SSE 1025,7 - 0,0
30.10.2020 06:00:00 15,3 12,8 13 7 19 10 SW 1025,8 - 0,0
30.10.2020 05:00:00 15,4 12,9 15 8 21 11 SW 1025,5 - 0,0
30.10.2020 04:00:00 15,4 12,9 14 8 21 12 SW 1025,5 - 0,0
30.10.2020 03:00:00 15,5 13,2 15 8 23 12 SW 1025,7 - 0,0
30.10.2020 02:00:00 15,5 13,2 17 9 25 14 SW 1025,6 - 0,0
30.10.2020 01:00:00 15,5 13,2 19 10 26 14 SSW 1025,5 12 0,0
30.10.2020 00:00:00 15,5 13,2 20 11 28 15 SW 1025,7 - 0,0
29.10.2020 23:00:00 15,4 13,1 19 10 27 15 SW 1026,0 - 0,0
29.10.2020 22:00:00 15,4 13,2 18 10 25 13 SW 1025,8 - 0,0
29.10.2020 21:00:00 15,5 13,2 18 10 29 16 SW 1025,5 - 0,0
29.10.2020 20:00:00 15,6 13,1 19 10 29 16 SW 1025,4 - 0,0
29.10.2020 19:00:00 15,8 13,1 20 11 31 17 SW 1025,1 12 0,0
29.10.2020 18:00:00 16,0 13,3 21 11 31 17 SW 1025,0 - 0,0
29.10.2020 17:00:00 16,4 13,3 19 10 29 16 SW 1024,7 - 0,0
29.10.2020 16:00:00 16,6 13,3 22 12 34 18 SW 1024,5 8 0,0
29.10.2020 15:00:00 16,7 13,4 25 13 34 18 SW 1024,5 - 0,0
29.10.2020 14:00:00 16,6 13,3 27 15 36 20 WSW 1025,0 - 0,0
29.10.2020 13:00:00 16,3 13,4 29 16 40 22 WSW 1024,9 - 0,0
29.10.2020 12:00:00 16,5 13,2 27 14 39 21 WSW 1025,4 - 0,0
29.10.2020 11:00:00 15,6 13,4 24 13 44 24 WSW 1024,9 - 0,0
29.10.2020 10:00:00 16,0 13,1 26 14 37 20 SW 1024,5 8 0,0
29.10.2020 09:00:00 15,6 12,9 24 13 37 20 W 1024,3 - 0,0
29.10.2020 08:00:00 15,1 13,1 26 14 52 28 WSW 1023,6 - 1,0
29.10.2020 07:00:00 15,0 13,0 26 14 42 23 WSW 1023,1 - 0,8
29.10.2020 06:00:00 15,7 12,4 30 16 45 24 WSW 1022,6 - 0,0
29.10.2020 05:00:00 15,4 12,9 29 15 49 26 WSW 1022,0 - 0,0
29.10.2020 04:00:00 15,9 12,6 31 17 45 24 W 1021,8 10 0,0
29.10.2020 03:00:00 15,7 12,6 32 18 49 26 W 1021,9 - 0,0
29.10.2020 02:00:00 15,9 12,1 37 20 55 30 W 1021,6 - 0,0
29.10.2020 01:00:00 16,0 12,4 38 20 55 30 W 1021,1 - 0,0
29.10.2020 00:00:00 15,9 12,3 42 23 59 32 W 1021,0 - 0,0
28.10.2020 23:00:00 15,9 11,9 39 21 57 31 WSW 1020,7 - 0,0
28.10.2020 22:00:00 15,8 12,4 36 19 60 33 W 1020,1 10 0,0
28.10.2020 21:00:00 15,5 11,7 40 21 58 31 W 1019,6 - 0,0
28.10.2020 20:00:00 15,6 11,6 38 20 58 32 WSW 1019,3 - 0,4
28.10.2020 19:00:00 15,4 12,2 41 22 56 31 WSW 1018,6 - 0,4
28.10.2020 18:00:00 15,1 11,5 41 22 76 41 W 1018,2 - 0,4
28.10.2020 17:00:00 16,1 11,7 42 23 65 35 SW 1017,7 - 0,0
28.10.2020 16:00:00 16,2 10,9 44 24 67 36 WSW 1017,2 6 0,0
28.10.2020 15:00:00 16,3 11,4 46 25 66 36 WSW 1016,9 - 0,0
28.10.2020 14:00:00 16,3 11,9 40 22 58 32 SW 1016,6 - 0,0
28.10.2020 13:00:00 16,2 10,3 40 21 56 30 SW 1016,8 6 0,0
28.10.2020 12:00:00 16,3 10,6 39 21 53 29 SW 1016,8 - 0,0
28.10.2020 11:00:00 16,0 10,3 39 21 54 29 SW 1016,5 - 0,0
28.10.2020 10:00:00 15,9 10,0 35 19 49 26 SW 1015,8 10 0,0
28.10.2020 09:00:00 15,5 9,4 30 16 42 23 WSW 1015,7 - 0,0
28.10.2020 08:00:00 15,5 9,6 29 16 43 23 WSW 1014,9 - 0,0
28.10.2020 07:00:00 15,6 9,5 33 18 42 23 WSW 1014,3 - 0,0
28.10.2020 06:00:00 15,5 9,8 28 15 50 27 W 1014,0 - 0,0
28.10.2020 05:00:00 15,4 10,4 35 19 50 27 W 1013,5 - 0,0
28.10.2020 04:00:00 15,5 11,5 33 18 52 28 WSW 1013,0 8 0,0
28.10.2020 03:00:00 14,4 10,6 32 18 65 35 W 1013,2 - 0,0
28.10.2020 02:00:00 15,8 9,9 35 19 48 26 WSW 1012,6 - 0,0
28.10.2020 01:00:00 15,8 11,2 32 17 49 26 WSW 1012,7 - 0,0
28.10.2020 00:00:00 15,6 11,2 35 19 56 30 WSW 1012,1 - 0,0
27.10.2020 23:00:00 15,2 12,0 34 18 65 35 WSW 1011,2 - 1,0
27.10.2020 22:00:00 15,5 12,8 31 17 42 23 WSW 1010,9 5 0,0
27.10.2020 21:00:00 14,8 13,5 27 15 45 24 WSW 1010,0 - 0,2
27.10.2020 20:00:00 14,8 13,7 36 19 66 35 WSW 1009,7 - 3,2
27.10.2020 19:00:00 15,3 14,3 48 26 65 35 SW 1008,7 1,0 0,2
27.10.2020 18:00:00 15,2 14,1 46 25 63 34 SW 1008,3 - 0,2
27.10.2020 17:00:00 15,1 14,0 48 26 68 37 SW 1008,3 - 0,4
27.10.2020 16:00:00 14,7 13,6 49 26 74 40 SSW 1008,5 1,0 1,0
27.10.2020 15:00:00 14,8 13,7 55 30 77 41 SW 1008,2 - 1,6
27.10.2020 14:00:00 14,9 13,8 53 28 74 40 SW 1008,5 - 1,0
27.10.2020 13:00:00 14,7 13,6 48 26 68 37 SSW 1009,1 - 0,6
27.10.2020 12:00:00 14,5 13,2 47 25 67 36 SW 1009,7 - 0,6
27.10.2020 11:00:00 14,5 13,0 36 19 49 26 SSW 1010,0 - 1,0
27.10.2020 10:00:00 13,9 12,1 24 13 44 24 SW 1010,5 7 3,5
27.10.2020 09:00:00 13,4 11,3 26 14 41 22 SSW 1011,1 - 0,8
27.10.2020 08:00:00 13,6 10,9 29 15 45 25 WSW 1011,1 - 0,8
27.10.2020 07:00:00 13,9 11,1 24 13 42 23 WSW 1010,9 9 1,0
27.10.2020 06:00:00 12,8 10,9 40 22 68 37 W 1011,2 - 1,4
27.10.2020 05:00:00 14,4 9,8 29 16 44 24 WSW 1010,8 - 0,0
27.10.2020 04:00:00 14,5 8,7 30 16 41 22 WSW 1011,2 12 0,0
27.10.2020 03:00:00 13,6 8,8 25 13 55 30 W 1012,0 - 1,2
27.10.2020 02:00:00 14,2 7,5 30 16 44 24 W 1012,3 - 0,0
27.10.2020 01:00:00 14,0 8,8 32 17 45 24 WSW 1012,6 13 0,0
27.10.2020 00:00:00 14,4 8,6 35 19 48 26 W 1012,5 - 0,0
26.10.2020 23:00:00 14,3 8,3 34 18 49 26 W 1012,6 - 0,0
26.10.2020 22:00:00 14,1 8,3 37 20 53 28 W 1012,3 - 0,0
26.10.2020 21:00:00 13,8 8,0 31 17 61 33 WNW 1012,0 - 0,0
26.10.2020 20:00:00 13,6 8,2 30 16 66 35 WNW 1012,0 - 0,6
26.10.2020 19:00:00 14,1 8,1 37 20 58 31 W 1011,4 10 0,0
26.10.2020 18:00:00 14,1 9,3 36 20 59 32 W 1011,0 - 0,2
26.10.2020 17:00:00 14,5 8,2 36 19 58 31 W 1010,6 - 0,2
26.10.2020 16:00:00 14,7 8,2 41 22 58 31 W 1010,4 12 0,0
26.10.2020 15:00:00 15,0 7,8 41 22 66 36 W 1010,3 - 0,0
26.10.2020 14:00:00 14,8 8,3 36 20 58 31 W 1010,2 - 0,2
26.10.2020 13:00:00 14,5 8,9 33 18 64 35 W 1010,8 80 0,8
26.10.2020 12:00:00 14,1 7,2 30 16 46 25 W 1010,7 - 0,0
26.10.2020 11:00:00 14,6 6,9 30 16 44 24 W 1010,3 - 0,0
26.10.2020 10:00:00 14,4 7,0 29 16 46 25 WNW 1010,0 12 0,0
26.10.2020 09:00:00 14,2 7,7 33 18 46 25 W 1009,3 - 0,0
26.10.2020 08:00:00 13,8 8,2 35 19 49 26 W 1008,4 - 0,0
26.10.2020 07:00:00 13,6 7,8 29 16 52 28 WNW 1007,7 15 0,0
26.10.2020 06:00:00 12,5 7,2 27 14 65 35 NW 1007,4 - 0,2
26.10.2020 05:00:00 14,0 8,2 33 18 52 28 WNW 1006,8 - 0,0
26.10.2020 04:00:00 14,1 8,3 30 16 52 28 W 1006,5 - 0,0
26.10.2020 03:00:00 14,3 7,6 34 18 50 27 W 1006,6 - 0,0
26.10.2020 02:00:00 13,9 7,6 31 17 50 27 W 1006,5 - 0,2
26.10.2020 01:00:00 14,5 6,6 38 20 47 26 W 1006,6 15 0,0
26.10.2020 00:00:00 14,1 7,4 34 19 47 26 W 1006,7 - 0,0
25.10.2020 23:00:00 14,5 6,3 33 18 46 25 W 1006,9 - 0,0

tt = Température de l'air
td = dewpoint
ff = Vitesse du vent
fx = gusts
dd = Direction du vent
ppp = reduced air pressure
vv = visibility
rr = Quantités de précipitations

stations d'obs. à proximité